Location: Newark
(49.7131°N, 2.5431°E)
Time: 05:32:32
(UTC+00:00)

Envisat - Visible Passes

Search period start: 29 September 2020 00:00
Search period end: 09 October 2020 00:00
Orbit: 764 x 766 km, 98.1° (Epoch: 28 September)

Date Brightness Start Highest point End Pass type
(mag) Time Alt. Az. Time Alt. Az. Time Alt. Az.
29 Sep 6.5 04:23:31 10° ENE 04:25:15 12° E 04:26:59 10° ESE visible
30 Sep 6.2 18:23:37 10° SW 18:26:52 17° W 18:30:06 10° NW visible
01 Oct 6.0 04:47:25 10° NE 04:51:04 19° E 04:54:41 10° SE visible
03 Oct 5.2 05:12:15 10° NNE 05:16:46 31° E 05:21:15 10° SSE visible
03 Oct 6.0 18:11:36 10° SW 18:15:21 21° W 18:19:08 10° NW visible
04 Oct 6.2 04:36:31 10° NE 04:39:33 16° E 04:42:36 10° SE visible
05 Oct 6.5 18:39:02 10° WSW 18:41:09 12° W 18:43:17 10° WNW visible
06 Oct 5.6 05:01:05 10° NE 05:05:18 26° E 05:09:30 10° SSE visible
06 Oct 5.7 17:59:42 10° SSW 18:03:52 25° W 18:08:04 10° NW visible
07 Oct 6.4 04:25:50 10° ENE 04:28:02 13° E 04:30:13 10° ESE visible
08 Oct 4.6 05:26:07 10° NNE 05:30:56 41° E 05:35:44 10° SSE visible
08 Oct 6.3 18:26:38 10° WSW 18:29:37 16° W 18:32:38 10° NW visible
